Regional Weather Roundup
Issued by NWS

Home | Current Version | Previous Version | Graphics & Text | Print | Product List | Glossary On
Versions: 1 2 3 4 5 6 7 8 9 10 11 12 13 14 15 16 17 18 19 20 21 22 23 24 25 26 27 28 29 30 31 32 33 34 35 36 37 38 39 40 41 42 43 44 45 46 47 48 49 50
000
ASUS43 KFSD 210402
RWRSD

WEATHER ROUNDUP FOR SOUTH DAKOTA
NATIONAL WEATHER SERVICE SIOUX FALLS SD
1000 PM CST SAT JAN 20 2018

NOTE: "FAIR" INDICATES FEW OR NO CLOUDS BELOW 12,000 FEET WITH NO
SIGNIFICANT WEATHER AND/OR OBSTRUCTIONS TO VISIBILITY.


SDZ001>005-009-010-012>017-210500-
NORTHWEST AND NORTH CENTRAL SOUTH DAKOTA

CITY           SKY/WX    TMP DP  RH WIND       PRES   REMARKS
BUFFALO          N/A     28  22  78 W9        29.89R WCI  19
FAITH            N/A     32  29  88 W6        29.95S WCI  26
MOBRIDGE       CLOUDY    36  28  73 NW6       29.93R
$$

SDZ012>016-024>037-041>051-057-063-072>074-210500-
SOUTHWEST AND SOUTH CENTRAL SOUTH DAKOTA

CITY           SKY/WX    TMP DP  RH WIND       PRES   REMARKS
RAPID CTY ARPT LGT SNOW  31  27  85 N8        29.98R FOG     WCI  23
PIERRE         CLOUDY    36  33  89 NW6       29.97R
CUSTER         LGT SNOW  23  20  88 NE7       29.87F VSB 1   WCI  15
ELLSWORTH AFB  LGT RAIN  34  25  71 N6        29.97  WCI  28
PHILIP         FLURRIES  33  33 100 NW6       29.99R WCI  28
PINE RIDGE     LGT SNOW  32  30  92 NE7       29.94R FOG     WCI  26
SPEARFISH      FLURRIES  30  25  80 W5        29.96S WCI  25
WINNER         CLOUDY    36  33  89 NW6       29.95R
$$

SDZ004>011-016>023-039-040-210500-
NORTHEAST SOUTH DAKOTA

CITY           SKY/WX    TMP DP  RH WIND       PRES   REMARKS
ABERDEEN       CLOUDY    33  28  81 W5        29.96R WCI  29
WATERTOWN      CLOUDY    33  30  88 CALM      29.93R
BROOKINGS      CLOUDY    36  30  79 CALM      29.94R
SISSETON         N/A     37  30  75 W6        29.93R
$$

SDZ017-020-022-023-036>040-048>070-210500-
SOUTHEAST SOUTH DAKOTA

CITY           SKY/WX    TMP DP  RH WIND       PRES   REMARKS
SIOUX FALLS    CLOUDY    32  30  92 NE3       29.93R
HURON          CLOUDY    37  34  89 NW5       29.95R
CHAMBERLAIN    CLOUDY    38  37  98 NW6       29.96R
MITCHELL       CLOUDY    33  30  88 NW6       29.96R WCI  28
YANKTON        CLOUDY    32  30  92 NW10      29.91  WCI  24
$$

ABBREVIATIONS USED IN REMARKS
   TC - TEMPERATURE IN CELSIUS
  WCI - WIND CHILL INDEX
   HX - HEAT INDEX
  VSB - VISIBILITY




USA.gov is the U.S. government's official web portal to all federal, state and local government web resources and services.